Home   Weather   Newport News   Past weeks

Flag for USA Past Weather in Newport News, Virginia, USA — Yesterday and Last 2 Weeks

Now
77 °F

Clear.


Feels Like: 78 °F
Forecast: 74 / 90 °F
Wind: 10 mph from Southwest

Location: Newport News / Williamsburg International Airport

Current Time: Apr 29, 2017 at 1:47:45 am

Latest Report: Apr 29, 2017 at 12:54 am


Visibility: 9 mi

Pressure: 30.07 "Hg

Humidity: 85%

Dew Point: 72 °F

Location of Newport NewsLocation

Past Weather in Newport News — Graph

°F

Newport News Temperature Yesterday

Maximum temperature yesterday: 86 °F (at 4:54 pm)
Minimum temperature yesterday: 70 °F (at 2:54 am)
Average temperature yesterday: 77 °F

High & Low Weather Summary for the Past Weeks

 TemperatureHumidityPressure
High87 °F (Apr 21, 2:54 pm)97% (Apr 14, 3:54 am)30.42 "Hg (Apr 14, 3:54 am)
Low41 °F (Apr 14, 4:54 am)33% (Apr 16, 3:54 pm)29.61 "Hg (Apr 25, 3:54 pm)
Average65 °F78%30.01 "Hg
* Reported Apr 13 11:54 pm — Apr 28 11:54 pm, Newport News, Weather by CustomWeather, © 2017

Note: Actual official high and low records may vary slightly from our data, if they occured in-between our weather recording intervals... More about our weather records

Advertising

Newport News Weather History for the Previous 24 Hours

Scroll right to see more
 ConditionsComfort  
Time TempWeatherWind HumidityBarometerVisibility
11:54 pm
Fri, Apr 28
78 °FClear.14 mph82%30.07 "Hg9 mi
10:54 pm78 °FClear.12 mph82%30.06 "Hg9 mi
9:54 pm77 °FClear.3 mph74%30.06 "Hg10 mi
8:54 pm78 °FClear.3 mph74%30.04 "Hg10 mi
7:54 pm79 °FClear.7 mph69%30.03 "Hg10 mi
6:54 pm83 °FSunny.8 mph61%30.02 "Hg10 mi
5:54 pm85 °FSunny.9 mph57%30.02 "Hg10 mi
4:54 pm86 °FSunny.10 mph55%30.02 "Hg10 mi
3:54 pm85 °FSunny.12 mph59%30.03 "Hg10 mi
2:54 pm84 °FSunny.9 mph63%30.04 "Hg10 mi
1:54 pm83 °FPassing clouds.10 mph65%30.05 "Hg10 mi
12:54 pm80 °FBroken clouds.6 mph69%30.05 "Hg10 mi
11:54 am78 °FMore clouds than sun.6 mph71%30.06 "Hg10 mi
11:26 am77 °FMore clouds than sun.8 mph74%30.07 "Hg10 mi
10:54 am76 °FMostly cloudy.9 mph77%30.06 "Hg10 mi
9:54 am76 °FOvercast.9 mph80%30.05 "Hg10 mi
8:54 am73 °FOvercast.13 mph88%30.03 "Hg9 mi
8:38 am73 °FLow clouds.7 mph88%30.03 "Hg9 mi
6:54 am70 °FBroken clouds.10 mph90%29.99 "Hg10 mi
5:54 am70 °FLight rain. Overcast.8 mph84%29.96 "Hg10 mi
4:54 am70 °FPartly cloudy.6 mph81%29.94 "Hg10 mi
3:54 am71 °FPassing clouds.7 mph78%29.93 "Hg10 mi
2:54 am70 °FPassing clouds.7 mph81%29.92 "Hg10 mi
1:54 am71 °FPassing clouds.8 mph76%29.91 "Hg10 mi
Weather by CustomWeather, © 2017

See weather overviewHow to use our weather pages